PD1VW-10 Weather Reports


Display with metric or nautical units.
time (UTC)temp
F
wind
direction
speed
MPH
gust
MPH
rain 1hr
in
rain 24hr
in
rain mn
in
humidity
%
barometer
mb
20260902175042 66 249 2.0 7.0 0.00 0.00 0.00 78 1020.0
20260902174020 66 181 0.0 2.0 0.00 0.00 0.00 78 1019.8
20260902173017 66 210 4.0 9.0 0.00 0.00 0.00 78 1020.0
20260902172045 66 253 3.0 7.0 0.00 0.00 0.00 78 1020.1
20260902171042 66 0.0 0.0 0.00 0.00 0.00 79 1020.2
20260902170040 67 247 5.0 7.0 0.00 0.00 0.00 78 1020.1
20260902165037 67 179 1.0 4.0 0.00 0.00 0.00 78 1020.2
20260902164034 67 178 2.0 6.0 0.00 0.00 0.00 77 1020.2
20260902163032 67 215 3.0 3.0 0.00 0.00 0.00 77 1020.3
20260902162029 67 245 6.0 8.0 0.00 0.00 0.00 77 1020.2
20260902161028 67 207 5.0 8.0 0.00 0.00 0.00 76 1020.4
20260902160024 68 210 4.0 6.0 0.00 0.00 0.00 77 1020.1
20260902155042 67 261 3.0 8.0 0.00 0.00 0.00 76 1020.6
20260902154019 68 198 3.0 7.0 0.00 0.00 0.00 75 1020.5
20260902153015 68 217 2.0 6.0 0.00 0.00 0.00 74 1020.6
20260902152103 68 247 4.0 6.0 0.00 0.00 0.00 74 1020.7
20260902151039 68 265 8.0 13.0 0.00 0.00 0.00 73 1020.8
20260902150037 69 249 4.0 6.0 0.00 0.00 0.00 72 1020.8
20260902145035 69 196 0.0 1.0 0.00 0.00 0.00 72 1021.0
20260902144051 69 238 4.0 8.0 0.00 0.00 0.00 72 1020.8
20260902143028 69 254 7.0 11.0 0.00 0.00 0.00 70 1020.8
20260902142025 69 239 8.0 14.0 0.00 0.00 0.00 70 1021.0
20260902141022 69 242 2.0 8.0 0.00 0.00 0.00 69 1020.8
20260902140019 69 239 5.0 9.0 0.00 0.00 0.00 69 1020.8
20260902135016 69 246 9.0 13.0 0.00 0.00 0.00 68 1020.8
20260902134103 70 241 5.0 10.0 0.00 0.00 0.00 68 1020.8
20260902133040 70 241 9.0 13.0 0.00 0.00 0.00 67 1020.8
20260902132037 69 226 10.0 15.0 0.00 0.00 0.00 68 1020.6
20260902131034 69 258 3.0 9.0 0.00 0.00 0.00 70 1020.7
20260902130031 69 236 4.0 9.0 0.00 0.00 0.00 69 1020.6
20260902125028 70 253 6.0 10.0 0.00 0.00 0.00 68 1020.5
20260902124025 69 253 4.0 9.0 0.00 0.00 0.00 70 1020.7
20260902123043 70 237 5.0 8.0 0.00 0.00 0.00 68 1020.8
20260902122020 69 245 9.0 11.0 0.00 0.00 0.00 69 1020.7
20260902121017 69 260 5.0 9.0 0.00 0.00 0.00 70 1020.9
20260902120044 68 233 7.0 13.0 0.00 0.00 0.00 71 1020.8
20260902115042 69 188 1.0 4.0 0.00 0.00 0.00 72 1020.9
20260902114039 68 246 2.0 6.0 0.00 0.00 0.00 72 1020.8
20260902113037 69 251 7.0 9.0 0.00 0.00 0.00 71 1021.0
20260902112034 69 265 4.0 9.0 0.00 0.00 0.00 72 1021.0
20260902111031 69 227 2.0 8.0 0.00 0.00 0.00 72 1020.9
20260902110028 69 268 4.0 9.0 0.00 0.00 0.00 71 1020.8
20260902105045 68 256 6.0 11.0 0.00 0.00 0.00 74 1021.1
20260902104022 69 307 3.0 7.0 0.00 0.00 0.00 73 1021.1
20260902103019 69 250 3.0 8.0 0.00 0.00 0.00 73 1021.0
20260902102016 68 256 4.0 8.0 0.00 0.00 0.00 72 1020.9
20260902101043 68 276 6.0 11.0 0.00 0.00 0.00 73 1020.8
20260902100040 68 251 7.0 9.0 0.00 0.00 0.00 74 1020.7
20260902095038 68 270 7.0 10.0 0.00 0.00 0.00 73 1020.7
20260902094035 68 281 9.0 13.0 0.00 0.00 0.00 75 1020.6
20260902093033 68 244 3.0 7.0 0.00 0.00 0.00 75 1020.4
20260902092030 69 201 2.0 4.0 0.00 0.00 0.00 77 1020.7
20260902091028 69 252 6.0 11.0 0.00 0.00 0.00 75 1020.4
20260902090025 69 246 5.0 13.0 0.00 0.00 0.00 72 1020.3
20260902085023 68 259 8.0 14.0 0.00 0.00 0.00 72 1020.6
20260902084100 68 225 1.0 3.0 0.00 0.00 0.00 78 1020.2
20260902083018 69 208 2.0 4.0 0.00 0.00 0.00 80 1020.2
20260902082015 68 210 3.0 6.0 0.00 0.00 0.00 81 1020.0
20260902081043 68 203 3.0 4.0 0.00 0.00 0.00 84 1020.2
20260902080040 67 214 5.0 7.0 0.00 0.00 0.00 85 1020.2
20260902075037 66 189 5.0 7.0 0.00 0.00 0.00 86 1020.1
20260902074054 65 220 5.0 8.0 0.00 0.00 0.00 88 1020.0
20260902073032 64 212 4.0 7.0 0.00 0.00 0.00 90 1020.0
20260902072029 64 202 3.0 4.0 0.00 0.00 0.00 91 1019.8
20260902071026 63 232 3.0 4.0 0.00 0.00 0.00 91 1019.8
20260902070023 62 187 4.0 7.0 0.00 0.00 0.00 92 1019.8
20260902065020 62 208 4.0 7.0 0.00 0.00 0.00 93 1019.7
20260902064037 62 205 3.0 4.0 0.00 0.00 0.00 94 1019.8
20260902063125 61 204 2.0 4.0 0.00 0.00 0.00 95 1019.9
20260902062042 60 193 3.0 4.0 0.00 0.00 0.00 95 1019.7
20260902061039 60 174 3.0 3.0 0.00 0.00 0.00 95 1019.7
20260902060037 59 213 2.0 3.0 0.00 0.00 0.00 95 1019.7
20260902055034 59 140 3.0 4.0 0.00 0.00 0.00 95 1019.8
20260902054031 59 180 2.0 3.0 0.00 0.00 0.00 95 1019.7
20260902053029 59 166 3.0 4.0 0.00 0.00 0.00 95 1019.5
20260902052026 59 157 3.0 4.0 0.00 0.00 0.00 95 1019.8
20260902051024 59 156 3.0 4.0 0.00 0.00 0.00 95 1019.5
20260902050021 59 160 3.0 3.0 0.00 0.00 0.00 95 1019.7
20260902045019 58 165 3.0 3.0 0.00 0.00 0.00 95 1019.7
20260902044016 58 164 3.0 4.0 0.00 0.00 0.00 94 1019.7
20260902043044 58 156 2.0 3.0 0.00 0.00 0.00 94 1019.6
20260902042041 59 145 3.0 4.0 0.00 0.00 0.00 94 1019.7
20260902041039 59 182 3.0 4.0 0.00 0.00 0.00 94 1019.7
20260902040056 59 177 4.0 6.0 0.00 0.00 0.00 93 1019.7
20260902035034 59 170 3.0 4.0 0.00 0.00 0.00 93 1019.6
20260902034031 59 190 3.0 4.0 0.00 0.00 0.00 93 1019.8
20260902033049 59 197 2.0 3.0 0.00 0.00 0.00 93 1020.0
20260902032026 58 170 4.0 6.0 0.00 0.00 0.00 93 1019.8
20260902031024 59 186 4.0 6.0 0.00 0.00 0.00 93 1019.8
20260902030021 59 161 4.0 6.0 0.00 0.00 0.00 92 1019.9
20260902025019 59 175 5.0 7.0 0.00 0.00 0.00 92 1019.9
20260902024136 59 170 5.0 7.0 0.00 0.00 0.00 92 1019.9
20260902023043 58 168 5.0 6.0 0.00 0.00 0.00 92 1020.1
20260902022041 58 167 4.0 6.0 0.00 0.00 0.00 92 1020.2
20260902021038 58 174 5.0 7.0 0.00 0.00 0.00 92 1020.1
20260902020034 58 164 5.0 6.0 0.00 0.00 0.00 92 1020.2
20260902015031 58 189 5.0 6.0 0.00 0.00 0.00 92 1020.1
20260902014028 58 150 6.0 8.0 0.00 0.00 0.00 92 1020.3
20260902013025 58 165 5.0 7.0 0.00 0.00 0.00 92 1020.5
20260902012021 57 165 4.0 6.0 0.00 0.00 0.00 92 1020.4
20260902011021 57 158 4.0 6.0 0.00 0.00 0.00 92 1020.4
20260902010016 57 172 4.0 6.0 0.00 0.00 0.00 92 1020.5
20260902005043 57 0.0 0.0 0.00 0.00 0.00 92 1020.5
20260902004039 57 179 3.0 4.0 0.00 0.00 0.00 92 1020.5
20260902003037 57 0.0 0.0 0.00 0.00 0.00 92 1020.6
20260902002034 57 164 0.0 1.0 0.00 0.00 0.00 92 1020.7
20260902001031 57 0.0 0.0 0.00 0.00 0.00 92 1020.6
20260902000029 56 0.0 0.0 0.00 0.00 0.00 92 1020.6
20260901235026 56 0.0 0.0 0.00 0.00 0.00 92 1020.5
20260901234024 56 0.0 0.0 0.00 0.00 0.00 91 1020.8
20260901233022 56 0.0 0.0 0.00 0.00 0.00 91 1020.8
20260901232019 56 0.0 0.0 0.00 0.00 0.00 91 1020.8
20260901231017 56 0.0 0.0 0.00 0.00 0.00 91 1021.0
20260901230104 56 0.0 0.0 0.00 0.00 0.00 90 1021.0
20260901225041 57 0.0 0.0 0.00 0.00 0.00 90 1021.1
20260901224039 57 0.0 0.0 0.00 0.00 0.00 90 1021.1
20260901223056 57 0.0 0.0 0.00 0.00 0.00 90 1021.0
20260901222034 56 0.0 0.0 0.00 0.00 0.00 90 1021.1
20260901221031 56 0.0 0.0 0.00 0.00 0.00 90 1021.1
20260901220029 56 0.0 0.0 0.00 0.00 0.00 91 1021.3
20260901215027 56 0.0 0.0 0.00 0.00 0.00 90 1021.1
20260901214024 56 0.0 0.0 0.00 0.00 0.00 90 1020.9
20260901213021 56 0.0 0.0 0.00 0.00 0.00 90 1021.1
20260901212019 56 0.0 0.0 0.00 0.00 0.00 89 1021.3
20260901211037 57 0.0 0.0 0.00 0.00 0.00 88 1021.4
20260901210044 57 0.0 0.0 0.00 0.00 0.00 89 1021.5
20260901205102 57 0.0 0.0 0.00 0.00 0.00 89 1021.8
20260901204100 57 0.0 0.0 0.00 0.00 0.00 88 1021.9
20260901203037 57 0.0 0.0 0.00 0.00 0.00 87 1021.9
20260901202034 58 0.0 0.0 0.00 0.00 0.00 87 1021.7
20260901201032 58 0.0 0.0 0.00 0.00 0.00 86 1021.7
20260901200029 59 0.0 0.0 0.00 0.00 0.00 85 1021.7
20260901195027 59 0.0 0.0 0.00 0.00 0.00 85 1021.7
20260901194044 58 0.0 0.0 0.00 0.00 0.00 86 1021.8
20260901193022 58 0.0 0.0 0.00 0.00 0.00 87 1021.7
20260901192039 59 0.0 0.0 0.00 0.00 0.00 85 1021.3
20260901191017 59 154 1.0 2.0 0.00 0.00 0.00 84 1021.4
20260901190044 59 0.0 0.0 0.00 0.00 0.00 83 1021.5
20260901185041 59 0.0 0.0 0.00 0.00 0.00 83 1021.3
20260901184037 60 0.0 0.0 0.00 0.00 0.00 83 1021.3
20260901183035 60 0.0 0.0 0.00 0.00 0.00 82 1021.4
20260901182032 61 0.0 0.0 0.00 0.00 0.00 82 1021.4
20260901181049 62 152 0.0 1.0 0.00 0.00 0.00 79 1021.3
20260901180027 63 0.0 0.0 0.00 0.00 0.00 77 1021.5